Showing default

AMAZONAS 5, 42934

Orbit data source: Space-Track

AMAZONAS 5, 42934 is a Brazilian payload satellite in GEO that was launched on Mon, 11 Sep 2017 UTC via a PROTON-M/BRIZ-M launch vehicle from the Tyuratam Missile And Space Complex (TTMTR). Payload-class satellites include a variety of spacecraft equipped with specific instruments for various scientific and technological missions. These include communications satellites like Starlink; space stations such as the ISS; scientific satellites like the Hubble; Earth observation satellites from companies like Planet Labs, Umbra, and HawkEye 360; GPS; miniature CubeSats for education and research; and military/defense satellites.

Loading next visibility...
Identifier
42934, 2017-053A
Orbit
GEO
Country
Flag of UnknownUnknown / BRAZ
Related business
Manufacturer
SS/Loral (MDA)
Mission
Operational Commercial Communications
Bus & Motor
SSL-1300, R-4D-15?
Mass
5,900 kg wet, ~3,500 kg dry
Launch date (UTC)
2017-09-11 (8 years ago)
Launch vehicle
PROTON-M/BRIZ-M
Launch site
Tyuratam Missile And Space Complex (TTMTR)
Object type
Payload
Rocket body
Debris
Shape & HBR
Box + 2 Pan, 13.0 m
Radar Cross Section
45.651 m², Large (>1 m²)

Expand to show TLE details & history
Last TLE update: 8 hours ago

TLE from 8 hours ago
0 AMAZONAS 5
1 42934U 17053A   26062.43171460 -.00000297  00000-0  00000+0 0  9998
2 42934   0.0077 298.9033 0005407  29.8784 286.8152  1.00270670 30981
Epoch: 2026-03-03T10:21Z
TLE epoch observation values (Epoch: 2026-03-03T10:21:40.141Z)
Latitude
-0.01421°
Longitude
-61.05569°
Altitude
35,779.809 km
Speed
3.075 km/s
True Right ascension
17h 02m 17s
True Declination
0° 00' 51"
Sunlit
Object was in daylight at epoch
Visualization orbit readout
Latitude
Unknown
Longitude
Unknown
Altitude
Unknown
Speed
Unknown
Apparent Right ascension
Unknown
Apparent Declination
Unknown
Sunlit
N/A
Visualization observer readout
Local Sidereal Time
22:09:57
Azimuth
Unknown
Elevation
Unknown
Doppler factor
Unknown
Orbital elements
Apogee altitude
35,810.777 km
Perigee altitude
35,765.179 km
Semi-major axis
42,166.115 km
Eccentricity
0.00054
Inclination
0.0077°
RAAN
298.9033°
Arg. of periapsis
29.8784°
True anomaly
286.75588°
Mean anomaly
286.8152°
Eccentric anomaly
286.78554°
Mean motion
0.25067 °/min
Orbital period
1,436.17 mins
BSTAR
0
Loading maneuver chart data...
Computing Atmospheric mass density...
Loading historical data...
Loading historical data...
Loading historical data...
Loading historical data...
Loading historical data...
Loading historical data...
Loading historical data...
Other satellites on launch #53 in the year 2017 (2017-09-11 UTC)

Documentation

Showing up to 5 results
|